This is the latest recevied weather packets stored in our database for station/object K4AMF. If no packets are shown the sender has not sent any weather packets the latest 10 day(s).
| Time | Temp. | Humidity | Pressure | Rain* | Wind** | Luminosity | Snow |
|---|---|---|---|---|---|---|---|
| 1778107136 | 32.22° C | 50% | 1014.8 hPa | 0 mm | - | 86 W/m² | - |
| 1778106831 | 32.22° C | 50% | 1014.7 hPa | 0 mm | - | 98 W/m² | - |
| 1778106529 | 32.22° C | 49% | 1014.6 hPa | 0 mm | - | 230 W/m² | - |
| 1778106224 | 32.78° C | 49% | 1014.8 hPa | 0 mm | - | 222 W/m² | - |
| 1778105922 | 32.22° C | 50% | 1014.6 hPa | 0 mm | - | 239 W/m² | - |
| 1778105619 | 32.22° C | 50% | 1014.7 hPa | 0 mm | - | 260 W/m² | - |
| 1778105317 | 32.78° C | 50% | 1014.8 hPa | 0 mm | - | 87 W/m² | - |
| 1778105012 | 32.78° C | 48% | 1014.7 hPa | 0 mm | - | 153 W/m² | - |
| 1778104709 | 33.33° C | 46% | 1014.5 hPa | 0 mm | - | 160 W/m² | - |
| 1778104405 | 33.33° C | 46% | 1014.7 hPa | 0 mm | - | 310 W/m² | - |
| 1778104101 | 33.33° C | 46% | 1014.4 hPa | 0 mm | - | 322 W/m² | - |
| 1778103798 | 33.33° C | 47% | 1014.6 hPa | 0 mm | - | 110 W/m² | - |
| 1778103496 | 33.89° C | 45% | 1014.7 hPa | 0 mm | - | 348 W/m² | - |
| 1778103193 | 33.33° C | 46% | 1014.8 hPa | 0 mm | - | 404 W/m² | - |
| 1778102890 | 33.33° C | 46% | 1014.8 hPa | 0 mm | - | 415 W/m² | - |
| 1778102586 | 32.78° C | 46% | 1014.9 hPa | 0 mm | - | 361 W/m² | - |
| 1778102281 | 32.78° C | 46% | 1014.7 hPa | 0 mm | - | 318 W/m² | - |
| 1778101978 | 33.33° C | 46% | 1014.9 hPa | 0 mm | - | 395 W/m² | - |
| 1778101675 | 33.89° C | 46% | 1015 hPa | 0 mm | - | 425 W/m² | - |
| 1778101372 | 32.78° C | 45% | 1015 hPa | 0 mm | - | 474 W/m² | - |
| 1778101069 | 33.33° C | 44% | 1014.8 hPa | 0 mm | - | 492 W/m² | - |
| 1778100764 | 33.33° C | 44% | 1015.3 hPa | 0 mm | - | 430 W/m² | - |
| 1778100461 | 33.33° C | 44% | 1015.2 hPa | 0 mm | - | 397 W/m² | - |
| 1778100159 | 32.78° C | 45% | 1015.1 hPa | 0 mm | - | 337 W/m² | - |
| 1778099857 | 32.78° C | 45% | 1015.4 hPa | 0 mm | - | 386 W/m² | - |
* Rain latest hour (hover to see other rain measurements)
** Current wind speed in m/s (hover to see current wind gust speed)